Αρχική σελίδα
METAR-TAF:

METAR-TAF

Αεροδρόμια :

Tekamah Municipal Airport

Tekamah, Νεμπράσκα, Ηνωμένες Πολιτείες Αμερικής

γεωγραφικό πλάτος: 41-46-01N, γεωγραφικό μήκος: 096-10-40W, υψόμετρο: 313 μ

Παρών καιρός

Η αναφορά έγινε 1 ώρα και 3 λεπτά πριν, στις 09:54 UTC
Άνεμος 4 kt από Δ/BΔ
Θερμοκρασία -7°C
Υγρασία 100%
Πίεση 1010 hPa
Ορατότητα: 11.3 χλμ
Καθαρός ουρανός

METAR: KTQE 130954Z AUTO 30004KT 7SM CLR M07/M07 A2983 RMK AO2 SLP108 I1000 T10671067

Χρόνος: 04:57 (10:57 UTC)


TAF: λείπει

Μετεωρολογικές αναφορές και προγνώσεις για περισσότερα από 4000 αεροδρόμια (δελτία METAR και TAF).

Οι διαθέσιμοι σταθμοί απεικονίζονται στο χάρτη με κίτρινες και κόκκινες κουκκίδες.

Μετακινήστε το ποντίκι πάνω από τις κουκκίδες για να δείτε το όνομα του σταθμού.

Στη συνέχεια, κάντε κλικ για να δείτε τις μετεωρολογικές αναφορές και τις προγνώσεις καιρού.

Για να αλλάξετε το χάρτη: κάντε κλικ στα πράσινα κουμπιά με τον μαύρο σταυρό για να ζουμάρετε, στο πράσινο κουμπί με την παύλα για να αφαιρέσετε το ζουμ ή στα πράσινα βέλη για να αντιπαραβάλλετε χάρτες.


METAR-TAF: